TimeAKDT,TemperatureF,Dew PointF,Humidity,Sea Level PressureIn,VisibilityMPH,Wind Direction,Wind SpeedMPH,Gust SpeedMPH,PrecipitationIn,Events,Conditions,WindDirDegrees,DateUTC
12:11 AM,51.8,48.2,88,29.64,6.0,ESE,16.1,-,0.00,Rain,Light Rain,110,2013-06-30 08:11:00
12:40 AM,51.8,48.2,88,29.63,9.0,ESE,17.3,-,0.01,Rain,Light Rain,110,2013-06-30 08:40:00
12:53 AM,51.1,48.9,92,29.62,7.0,ESE,16.1,-,0.01,Rain,Light Rain,110,2013-06-30 08:53:00
1:53 AM,50.0,48.0,93,29.61,6.0,SE,19.6,-,0.02,Rain,Light Rain,130,2013-06-30 09:53:00
2:00 AM,50.0,48.2,94,29.60,7.0,SE,18.4,-,0.01,Rain,Light Rain,130,2013-06-30 10:00:00
2:53 AM,50.0,48.0,93,29.59,5.0,SE,17.3,-,0.04,Rain,Light Rain,130,2013-06-30 10:53:00
3:25 AM,50.0,48.2,94,29.59,5.0,SE,18.4,27.6,0.04,Rain,Light Rain,140,2013-06-30 11:25:00
3:53 AM,48.9,48.0,97,29.59,3.0,SE,16.1,24.2,0.07,Rain,Light Rain,130,2013-06-30 11:53:00
4:16 AM,48.2,48.2,100,29.58,2.0,SE,16.1,-,0.00,Rain,Light Rain,140,2013-06-30 12:16:00
4:40 AM,48.2,48.2,100,29.58,2.5,SE,17.3,-,0.01,Rain,Light Rain,140,2013-06-30 12:40:00
4:53 AM,48.9,48.0,97,29.58,1.8,SE,16.1,-,0.01,Rain,Light Rain,140,2013-06-30 12:53:00
5:11 AM,48.2,48.2,100,29.57,2.0,SSE,16.1,-,0.01,Rain,Light Rain,150,2013-06-30 13:11:00
5:53 AM,48.0,46.9,96,29.56,5.0,SSE,13.8,-,0.01,,Overcast,150,2013-06-30 13:53:00
6:31 AM,48.2,46.4,93,29.55,1.8,SSE,12.7,-,0.00,Rain,Light Rain,150,2013-06-30 14:31:00
6:53 AM,48.0,46.9,96,29.55,1.5,SE,13.8,-,0.01,Rain,Light Rain,140,2013-06-30 14:53:00
7:53 AM,48.0,46.9,96,29.56,1.2,SSE,13.8,-,0.01,Rain,Light Rain,150,2013-06-30 15:53:00
8:20 AM,48.2,46.4,93,29.55,3.0,SSE,12.7,-,0.01,Rain,Light Rain,150,2013-06-30 16:20:00
8:32 AM,48.2,46.4,93,29.54,1.8,SE,11.5,-,0.01,Rain,Light Rain,140,2013-06-30 16:32:00
8:53 AM,48.0,46.9,96,29.54,1.8,SE,8.1,-,0.01,Rain,Light Rain,130,2013-06-30 16:53:00
9:02 AM,48.2,46.4,93,29.54,2.0,SE,9.2,-,0.01,Rain,Light Rain,130,2013-06-30 17:02:00
9:53 AM,48.0,46.9,96,29.53,2.0,ESE,12.7,-,0.03,Rain,Light Rain,120,2013-06-30 17:53:00
10:17 AM,48.2,46.4,93,29.52,4.0,ESE,15.0,-,0.02,Rain,Light Rain,120,2013-06-30 18:17:00
10:26 AM,48.2,46.4,93,29.51,1.8,ESE,13.8,-,0.02,Rain,Light Rain,120,2013-06-30 18:26:00
10:37 AM,48.2,46.4,93,29.51,2.5,ESE,12.7,-,0.03,Rain,Light Rain,120,2013-06-30 18:37:00
10:53 AM,48.9,48.0,97,29.51,2.0,ESE,15.0,-,0.06,Rain,Light Rain,110,2013-06-30 18:53:00
11:22 AM,48.2,48.2,100,29.50,1.5,SE,15.0,-,0.02,Rain,Light Rain,130,2013-06-30 19:22:00
11:53 AM,48.9,48.0,97,29.50,2.0,SE,18.4,-,0.05,Rain,Light Rain,130,2013-06-30 19:53:00
12:53 PM,48.9,48.0,97,29.48,2.0,SE,19.6,-,0.03,Rain,Light Rain,140,2013-06-30 20:53:00
1:18 PM,48.2,48.2,100,29.48,2.0,SE,13.8,-,0.00,Rain,Light Rain,140,2013-06-30 21:18:00
1:44 PM,48.2,48.2,100,29.48,1.8,SE,16.1,-,0.01,Rain,Light Rain,140,2013-06-30 21:44:00
1:53 PM,48.9,48.0,97,29.48,1.8,SE,17.3,-,0.01,Rain,Light Rain,140,2013-06-30 21:53:00
2:21 PM,48.2,48.2,100,29.47,3.0,SE,12.7,-,0.02,Rain,Light Rain,130,2013-06-30 22:21:00
2:45 PM,48.2,48.2,100,29.46,1.8,SE,16.1,-,0.02,,Overcast,130,2013-06-30 22:45:00
2:53 PM,50.0,48.9,96,29.47,1.8,SE,15.0,-,0.02,,Overcast,130,2013-06-30 22:53:00
3:26 PM,50.0,48.2,94,29.46,7.0,SE,18.4,-,N/A,,Overcast,130,2013-06-30 23:26:00
3:53 PM,51.1,48.9,92,29.45,10.0,SE,15.0,-,0.00,Rain,Light Rain,130,2013-06-30 23:53:00
4:34 PM,51.8,48.2,88,29.44,6.0,ESE,17.3,-,0.00,Rain,Light Rain,120,2013-07-01 00:34:00
4:53 PM,51.1,48.9,92,29.43,5.0,SE,19.6,-,0.00,Rain,Light Rain,130,2013-07-01 00:53:00
5:02 PM,50.0,48.2,94,29.42,5.0,SE,18.4,26.5,0.02,Rain,Light Rain,130,2013-07-01 01:02:00
5:32 PM,51.8,48.2,88,29.41,4.0,ESE,18.4,-,0.04,Rain,Light Rain,120,2013-07-01 01:32:00
5:53 PM,51.1,48.9,92,29.41,4.0,ESE,17.3,-,0.05,Rain,Light Rain,120,2013-07-01 01:53:00
6:46 PM,51.8,50.0,94,29.40,3.0,ESE,24.2,31.1,0.06,Rain,Light Rain,120,2013-07-01 02:46:00
6:53 PM,51.1,48.9,92,29.40,4.0,ESE,18.4,31.1,0.06,Rain,Light Rain,120,2013-07-01 02:53:00
7:10 PM,51.8,50.0,94,29.39,2.5,ESE,21.9,26.5,0.01,Rain,Light Rain,120,2013-07-01 03:10:00
7:20 PM,51.8,50.0,94,29.39,4.0,ESE,18.4,26.5,0.03,Rain,Light Rain,120,2013-07-01 03:20:00
7:53 PM,51.1,50.0,96,29.39,9.0,ESE,23.0,26.5,0.03,Rain,Light Rain,120,2013-07-01 03:53:00
8:53 PM,51.1,50.0,96,29.38,7.0,ESE,20.7,26.5,0.06,Rain,Light Rain,110,2013-07-01 04:53:00
9:53 PM,51.1,50.0,96,29.37,10.0,ESE,20.7,-,0.01,Rain,Light Rain,110,2013-07-01 05:53:00
10:31 PM,51.8,50.0,94,29.36,2.0,SE,16.1,27.6,0.00,Rain,Light Rain,140,2013-07-01 06:31:00
10:38 PM,50.0,48.2,94,29.36,1.2,South,21.9,29.9,0.00,Rain,Light Rain,170,2013-07-01 06:38:00
10:48 PM,48.2,48.2,100,29.36,3.0,South,16.1,23.0,0.00,Rain,Light Rain,170,2013-07-01 06:48:00
10:49 PM,48.9,48.0,97,29.37,3.0,South,15.0,23.0,0.00,Rain,Light Rain,170,2013-07-01 06:49:00
10:56 PM,48.2,46.4,93,29.37,4.0,South,16.1,-,0.00,,Overcast,170,2013-07-01 06:56:00
11:53 PM,46.9,45.0,93,29.38,10.0,SSE,5.8,-,0.01,,Overcast,150,2013-07-01 07:53:00